Location: Caixon
(43.4106°N, 0.0273°E)
Time: 14:58:49
(UTC+00:00)

Meteor 1-31 Rocket - Pass Details

Date: 16 October 2021
Orbit: 519 x 545 km, 97.7° (Epoch: 29 November)

Event Time Altitude Azimuth Distance (km) Brightness Sun altitude
Rises 05:04:40 0° 14° (NNE) 2,673 6.5 -13.5°
Reaches altitude 10° 05:06:48 10° 17° (NNE) 1,775 5.6 -13.2°
Maximum altitude 05:10:36 70° 101° (E) 558 3.0 -12.5°
Drops below altitude 10° 05:14:22 10° 186° (S) 1,749 5.3 -11.8°
Sets 05:16:27 0° 189° (S) 2,630 6.2 -11.4°
